timestamp,surface_pressure_avg,surface_temp_avg,battery_voltage,lat,long
2019-10-29 00:00:00+00:00,379.0213,9.2,12.89,47.84626,-54.09684
2019-10-29 00:10:00+00:00,378.1613,9.2,12.81,47.84626,-54.09684
2019-10-29 00:20:00+00:00,377.6512,9.2,12.89,47.84626,-54.09684
2019-10-29 00:30:00+00:00,378.5112,9.2,12.89,47.84626,-54.09684
2019-10-29 00:40:00+00:00,374.8229,9.18,12.97,47.84626,-54.09684
2019-10-29 00:50:00+00:00,371.1163,9.16,12.97,47.84626,-54.09684
2019-10-29 01:00:00+00:00,368.2297,9.11,12.89,47.84626,-54.09684
2019-10-29 01:10:00+00:00,364.873,9.1,12.81,47.84626,-54.09684
2019-10-29 01:20:00+00:00,359.923,9.14,12.89,47.84626,-54.09684
2019-10-29 01:30:00+00:00,351.6262,9.16,12.89,47.84626,-54.09684
2019-10-29 01:40:00+00:00,342.8929,9.17,12.97,47.84626,-54.09684
2019-10-29 01:50:00+00:00,337.6946,9.13,12.97,47.84626,-54.09684
2019-10-29 02:00:00+00:00,332.1529,9.1,12.89,47.84626,-54.09684
2019-10-29 02:10:00+00:00,322.2096,9.1,12.81,47.84626,-54.09684
2019-10-29 02:20:00+00:00,311.4846,9.1,12.89,47.84626,-54.09684
2019-10-29 02:30:00+00:00,304.9963,9.09,12.89,47.84626,-54.09684
2019-10-29 02:40:00+00:00,297.4714,9.09,12.89,47.84626,-54.09684
2019-10-29 02:50:00+00:00,289.3247,9.0,12.97,47.84626,-54.09684
2019-10-29 03:00:00+00:00,278.973,9.0,12.89,47.84626,-54.09684
2019-10-29 03:10:00+00:00,267.4348,9.0,12.81,47.84626,-54.09684
2019-10-29 03:20:00+00:00,256.4247,9.0,12.89,47.84626,-54.09684
2019-10-29 03:30:00+00:00,245.6614,9.0,12.89,47.84626,-54.09684
2019-10-29 03:40:00+00:00,232.7331,8.98,12.89,47.84626,-54.09684
2019-10-29 03:50:00+00:00,223.3214,8.99,12.89,47.84626,-54.09684
2019-10-29 04:00:00+00:00,214.7647,8.99,12.81,47.84626,-54.09684
2019-10-29 04:10:00+00:00,203.0964,8.9,12.81,47.84626,-54.09684
2019-10-29 04:20:00+00:00,193.1915,8.9,12.89,47.84626,-54.09684
2019-10-29 04:30:00+00:00,186.7531,8.9,12.89,47.84626,-54.09684
2019-10-29 04:40:00+00:00,181.8182,8.9,12.89,47.84626,-54.09684
2019-10-29 04:50:00+00:00,176.5898,8.89,12.89,47.84626,-54.09684
2019-10-29 05:00:00+00:00,174.0598,8.84,12.81,47.84626,-54.09684
2019-10-29 05:10:00+00:00,172.4482,8.86,12.73,47.84626,-54.09684
2019-10-29 05:20:00+00:00,171.1982,8.84,12.81,47.84626,-54.09684
2019-10-29 05:30:00+00:00,169.1548,8.8,12.89,47.84626,-54.09684
2019-10-29 05:40:00+00:00,167.2032,8.7,12.89,47.84626,-54.09684
2019-10-29 05:50:00+00:00,168.3915,8.69,12.89,47.84626,-54.09684
2019-10-29 06:00:00+00:00,169.6115,8.6,12.81,47.84626,-54.09684
2019-10-29 06:10:00+00:00,170.6931,8.6,12.73,47.84626,-54.09684
2019-10-29 06:20:00+00:00,173.4832,8.6,12.81,47.84626,-54.09684
2019-10-29 06:30:00+00:00,178.6664,8.6,12.81,47.84626,-54.09684
2019-10-29 06:40:00+00:00,181.3181,8.6,12.89,47.84626,-54.09684
2019-10-29 06:50:00+00:00,186.0882,8.6,12.89,47.84626,-54.09684
2019-10-29 07:00:00+00:00,192.1848,8.7,12.81,47.84626,-54.09684
2019-10-29 07:10:00+00:00,193.6648,8.73,12.73,47.84626,-54.09684
2019-10-29 07:20:00+00:00,199.8365,8.79,12.81,47.84626,-54.09684
2019-10-29 07:30:00+00:00,211.6881,8.79,12.81,47.84626,-54.09684
2019-10-29 07:40:00+00:00,213.9481,8.8,12.89,47.84626,-54.09684
2019-10-29 07:50:00+00:00,215.2564,8.8,12.89,47.84626,-54.09684
2019-10-29 08:00:00+00:00,224.0798,8.74,12.81,47.84626,-54.09684
2019-10-29 08:10:00+00:00,234.4581,8.77,12.73,47.84626,-54.09684
2019-10-29 08:20:00+00:00,240.5548,8.8,12.81,47.84626,-54.09684
2019-10-29 08:30:00+00:00,247.3297,8.85,12.81,47.84626,-54.09684
2019-10-29 08:40:00+00:00,256.3397,8.81,12.81,47.84626,-54.09684
2019-10-29 08:50:00+00:00,263.8698,8.8,12.89,47.84626,-54.09684
2019-10-29 09:00:00+00:00,267.4464,8.83,12.81,47.84626,-54.09684
2019-10-29 09:10:00+00:00,273.7947,8.8,12.73,47.84626,-54.09684
2019-10-29 09:20:00+00:00,284.3114,8.8,12.81,47.84626,-54.09684
2019-10-29 09:30:00+00:00,290.2598,8.8,12.81,47.84626,-54.09684
2019-10-29 09:40:00+00:00,295.2647,8.8,12.81,47.84626,-54.09684
2019-10-29 09:50:00+00:00,304.3146,8.8,12.89,47.84626,-54.09684
2019-10-29 10:00:00+00:00,315.2047,8.76,12.81,47.84626,-54.09684
2019-10-29 10:10:00+00:00,323.6081,8.8,12.73,47.84626,-54.09684
2019-10-29 10:20:00+00:00,333.8729,8.8,12.81,47.84626,-54.09684
2019-10-29 10:30:00+00:00,344.9213,8.79,12.81,47.84626,-54.09684
2019-10-29 10:40:00+00:00,353.588,8.76,12.89,47.84626,-54.09684
2019-10-29 10:50:00+00:00,361.8779,8.73,12.97,47.84626,-54.09684
2019-10-29 11:00:00+00:00,370.4329,8.73,13.13,47.84626,-54.09684
2019-10-29 11:10:00+00:00,377.163,8.75,13.29,47.84626,-54.09684
2019-10-29 11:20:00+00:00,382.8812,8.75,13.84,47.84626,-54.09684
2019-10-29 11:30:00+00:00,387.8979,8.78,13.84,47.84626,-54.09684
2019-10-29 11:40:00+00:00,394.7062,8.79,13.92,47.84626,-54.09684
2019-10-29 11:50:00+00:00,398.1529,8.8,14.0,47.84626,-54.09684
2019-10-29 12:00:00+00:00,400.0695,8.8,14.0,47.84626,-54.09684
2019-10-29 12:10:00+00:00,401.5812,8.8,14.4,47.84626,-54.09684
2019-10-29 12:20:00+00:00,403.5461,8.8,14.96,47.84626,-54.09684
2019-10-29 12:30:00+00:00,402.2096,8.83,14.72,47.84626,-54.09684
2019-10-29 12:40:00+00:00,398.3679,8.86,15.67,47.84626,-54.09684
2019-10-29 12:50:00+00:00,394.1912,8.88,16.23,47.84626,-54.09684
2019-10-29 13:00:00+00:00,391.5345,8.89,14.8,47.84626,-54.09684
2019-10-29 13:10:00+00:00,386.8546,8.86,15.51,47.84626,-54.09684
2019-10-29 13:20:00+00:00,383.6597,8.8,14.8,47.84626,-54.09684
2019-10-29 13:30:00+00:00,382.3829,8.8,14.72,47.84626,-54.09684
2019-10-29 13:40:00+00:00,377.7829,8.8,14.8,47.84626,-54.09684
2019-10-29 13:50:00+00:00,370.5629,8.8,14.72,47.84626,-54.09684
2019-10-29 14:00:00+00:00,364.6812,8.8,15.35,47.84626,-54.09684
2019-10-29 14:10:00+00:00,356.7796,8.8,14.8,47.84626,-54.09684
2019-10-29 14:20:00+00:00,350.103,8.8,15.04,47.84626,-54.09684
2019-10-29 14:30:00+00:00,342.3997,8.86,14.72,47.84626,-54.09684
2019-10-29 14:40:00+00:00,332.8163,8.89,14.8,47.84626,-54.09684
2019-10-29 14:50:00+00:00,320.6279,8.9,14.56,47.84626,-54.09684
2019-10-29 15:00:00+00:00,309.6797,8.9,14.56,47.84626,-54.09684
2019-10-29 15:10:00+00:00,300.9114,8.9,14.88,47.84626,-54.09684
2019-10-29 15:20:00+00:00,287.5197,8.9,14.64,47.84626,-54.09684
2019-10-29 15:30:00+00:00,274.7197,8.9,14.8,47.84626,-54.09684
2019-10-29 15:40:00+00:00,265.5331,8.9,14.8,47.84626,-54.09684
2019-10-29 15:50:00+00:00,255.8498,8.9,14.96,47.84626,-54.09684
2019-10-29 16:00:00+00:00,240.7731,8.9,14.88,47.84626,-54.09684
2019-10-29 16:10:00+00:00,230.4765,8.9,14.8,47.84626,-54.09684
2019-10-29 16:20:00+00:00,224.0497,8.9,14.64,47.84626,-54.09684
2019-10-29 16:30:00+00:00,212.4098,8.99,14.8,47.84626,-54.09684
2019-10-29 16:40:00+00:00,200.0431,9.0,14.64,47.84626,-54.09684
2019-10-29 16:50:00+00:00,192.6798,9.0,14.48,47.84626,-54.09684
2019-10-29 17:00:00+00:00,187.1831,9.0,14.4,47.84626,-54.09684
2019-10-29 17:10:00+00:00,176.2081,9.0,14.4,47.84626,-54.09684
2019-10-29 17:20:00+00:00,169.6031,9.0,14.72,47.84626,-54.09684
2019-10-29 17:30:00+00:00,167.5798,9.04,14.48,47.84626,-54.09684
2019-10-29 17:40:00+00:00,163.1615,9.1,14.48,47.84626,-54.09684
2019-10-29 17:50:00+00:00,159.2032,9.1,14.32,47.84626,-54.09684
2019-10-29 18:00:00+00:00,159.1931,9.1,14.56,47.84626,-54.09684
2019-10-29 18:10:00+00:00,159.0748,9.1,14.48,47.84626,-54.09684
2019-10-29 18:20:00+00:00,159.3382,9.1,14.32,47.84626,-54.09684
2019-10-29 18:30:00+00:00,161.9498,9.1,14.32,47.84626,-54.09684
2019-10-29 18:40:00+00:00,164.0931,9.1,14.24,47.84626,-54.09684
2019-10-29 18:50:00+00:00,166.5732,9.1,14.16,47.84626,-54.09684
2019-10-29 19:00:00+00:00,167.0615,9.1,14.0,47.84626,-54.09684
2019-10-29 19:10:00+00:00,169.2132,9.1,13.84,47.84626,-54.09684
2019-10-29 19:20:00+00:00,176.2515,9.09,13.84,47.84626,-54.09684
2019-10-29 19:30:00+00:00,182.0415,9.08,13.84,47.84626,-54.09684
2019-10-29 19:40:00+00:00,185.1531,9.1,13.76,47.84626,-54.09684
2019-10-29 19:50:00+00:00,191.9748,9.1,13.76,47.84626,-54.09684
2019-10-29 20:00:00+00:00,197.6664,9.06,13.6,47.84626,-54.09684
2019-10-29 20:10:00+00:00,198.6214,9.09,13.44,47.84626,-54.09684
2019-10-29 20:20:00+00:00,201.7731,9.06,13.44,47.84626,-54.09684
2019-10-29 20:30:00+00:00,207.0815,9.0,13.37,47.84626,-54.09684
2019-10-29 20:40:00+00:00,210.6514,9.0,13.37,47.84626,-54.09684
2019-10-29 20:50:00+00:00,214.6898,9.0,13.37,47.84626,-54.09684
2019-10-29 21:00:00+00:00,221.0864,9.0,13.29,47.84626,-54.09684
2019-10-29 21:10:00+00:00,228.3631,9.0,13.13,47.84626,-54.09684
2019-10-29 21:20:00+00:00,236.8448,9.0,13.13,47.84626,-54.09684
2019-10-29 21:30:00+00:00,244.0764,8.99,13.05,47.84626,-54.09684
2019-10-29 21:40:00+00:00,249.9648,8.97,13.05,47.84626,-54.09684
2019-10-29 21:50:00+00:00,257.9747,8.99,13.05,47.84626,-54.09684
2019-10-29 22:00:00+00:00,264.9081,8.9,12.97,47.84626,-54.09684
2019-10-29 22:10:00+00:00,271.6464,8.9,12.89,47.84626,-54.09684
2019-10-29 22:20:00+00:00,279.4964,8.9,12.97,47.84626,-54.09684
2019-10-29 22:30:00+00:00,288.2764,8.8,12.97,47.84626,-54.09684
2019-10-29 22:40:00+00:00,294.0314,8.78,12.97,47.84626,-54.09684
2019-10-29 22:50:00+00:00,302.3497,8.8,12.97,47.84626,-54.09684
2019-10-29 23:00:00+00:00,311.7429,8.8,12.89,47.84626,-54.09684
2019-10-29 23:10:00+00:00,322.1562,8.8,12.81,47.84626,-54.09684
2019-10-29 23:20:00+00:00,330.088,8.8,12.89,47.84626,-54.09684
2019-10-29 23:30:00+00:00,337.8463,8.82,12.97,47.84626,-54.09684
2019-10-29 23:40:00+00:00,345.4913,8.8,12.97,47.84626,-54.09684
2019-10-29 23:50:00+00:00,353.5946,8.8,12.97,47.84626,-54.09684
